Probability
0 0 0 0 0 0 0 0 0 0 0 0 0 0 0 0 0 0 0 0 0 0 0 0 0 0 0 0 0 0 0 0 0 0 0 0 0 0 0 0 0 0 0
0 0 0 0 0 0 0 0 0 0 0 0 0 0 0 0 0 0 0 0 0 0 0 0 0 0 0 0 0 0 0 0 0 0 0 0 0 0 0 0 0 0 0
0 0 0 0 0 0 0 0 0 0 0 0 0 0 0 0 0 0 0 0 0 0 0 0 0 0 0 0 0 0 0 0 0 0 0 0 0 0 0 0 0 0 0
0 0 0 0 0 0 0 0 0 0 0 0 0 0 0 0 0 0 0 0 0 0 0 0 0 0 0 0 0 0 0 0 0 0 0 0 0 0 0 0 0 0 0
0 0 0 0 0 0 0 0 0 0 0 0 0 0 0 0 0 0 0 0 0 0 0 0 0 0 0 0 0 0 0 0 0 0 0 0 0 0 0 0 0 0 0
0 0 0 0 0 0 0 0 0 0 0 0 0 0 0 0 0 0 0 0 0 0 0 0 0 0 0 0 0 0 0 0 0 0 0 0 0 0 0 0 0 0 0
0 0 0 0 0 0 0 0 0 0 0 0 0 0 0 0 0 0 0 0 0 0 0 0 0 0 0 0 0 0 0 0 0 0 0 0 0 0 0 0 0 0 0
0 0 0 0 0 0 0 0 0 0 0 0 0 0 0 0 0 0 0 0 0 0 0 0 0 0 0 0 0 0 0 0 0 0 0 0 0 0 0 0 0 0 0
0 0 0 0 0 0 0 0 0 0 0 0 0 0 0 0 0 0 0 0 0 0 0 0 0 0 0 0 0 0 0 0 0 0 0 0 0 0 0 0 0 0 0
0 0 0 0 0 0 0 0 0 0 0 0 0 0 0 0 0 0 0 0 0 0 0 0 0 0 0 0 0 0 0 0 0 0 0 0 0 0 0 0 0 0 0
0 0 0 0 0 0 0 0 0 0 0 0 0 0 0 0 0 0 0 0 0 0 0 0 0 0 0 0 0 0 0 0 0 0 0 0 0 0 0 0 0 0 0
0 0 0 0 0 0 0 0 0 0 0 0 0 0 0 0 0 0 0 0 0 0 0 0 0 0 0 0 0 0 0 0 0 0 0 0 0 0 0 0 0 0 0
0 0 0 0 0 0 0 0 0 0 0 0 0 0 0 0 0 0 0 0 0 0 0 0 0 0 0 0 0 0 0 0 0 0 0 0 0 0 0 0 0 0 0
0 0 0 0 0 0 0 0 0 0 0 0 0 0 0 0 0 0 0 0 0 0 0 0 0 0 0 0 0 0 0 0 0 0 0 0 0 0 0 0 0 0 0
0 0 0 0 0 0 0 0 0 0 0 0 0 0 0 0 0 0 0 0 0 0 0 0 0 0 0 0 0 0 0 0 0 0 0 0 0 0 0 0 0 0 0
0 0 0 0 0 0 0 0 0 0 0 0 0 0 0 0 0 0 0 0 0 0 0 0 0 0 0 0 0 0 0 0 0 0 0 0 0 0 0 0 0 0 0
0 0 0 0 0 0 0 0 0 0 0 0 0 0 0 0 0 0 0 0 0 0 0 0 0 0 0 0 0 0 0 0 0 0 0 0 0 0 0 0 0 0 0
0 0 0 0 0 0 0 0 0 0 0 0 0 0 0 0 0 0 0 0 0 0 0 0 0 0 0 0 0 0 0 0 0 0 0 0 0 0 0 0 0 0 0
0 0 0 0 0 0 0 0 0 0 0 0 0 0 0 0 0 0 0 0 0 0 0 0 0 0 0 0 0 0 0 0 0 0 0 0 0 0 0 0 0 0 0
0 0 0 0 0 0 0 0 0 0 0 0 0 0 0 0 0 0 0 0 0 0 0 0 0 0 0 0 0 0 0 0 0 0 0 0 0 0 0 0 0 0 0
0 0 0 0 0 0 0 0 0 0 0 0 0 0 0 0 0 0 0 0 0 0 0 0 0 0 0 0 0 0 0 0 0 0 0 0 0 0 0 0 0 0 0
0 0 0 0 0 0 0 0 0 0 0 0 0 0 0 0 0 0 0 0 0 0 0 0 0 0 0 0 0 0 0 0 0 0 0 0 0 0 0 0 0 0 0
0 0 0 0 0 0 0 0 0 0 0 0 0 0 0 0 0 0 0 0 0 0 0 0 0 0 0 0 0 0 0 0 0 0 0 0 0 0 0 0 0 0 0
0 0 0 0 0 0 0 0 0 0 0 0 0 0 0 0 0 0 0 0 0 0 0 0 0 0 0 0 0 0 0 0 0 0 0 0 0 0 0 0 0 0 0
0 0 0 0 0 0 0 0 0 0 0 0 0 0 0 0 0 0 0 0 0 0 0 0 0 0 0 0 0 0 0 0 0 0 0 0 0 0 0 0 0 0 0
0 0 0 0 0 0 0 0 0 0 0 0 0 0 0 0 0 0 0 0 0 0 0 0 0 0 0 0 0 0 0 0 0 0 0 0 0 0 0 0 0 0 0
Wind_Speed
4 4 5 5 5 6 5 6 5 6 6 7 6 6 7 7 7 6 7 7 7 7 6 7 7 6 4 4 4 3 3 2 1 1 2 2 1 1 1 2 2 1 1
4 5 5 5 5 6 6 6 6 6 7 7 7 7 8 8 8 8 8 8 8 8 7 7 7 5 6 5 4 5 4 3 1 2 2 2 2 1 2 1 1 1 1
5 5 5 5 6 6 6 6 7 7 7 7 7 8 8 8 8 8 8 8 9 8 8 7 6 6 6 5 5 5 4 4 3 3 2 2 2 1 2 1 1 1 1
5 5 5 5 5 5 6 6 7 6 7 7 7 7 7 7 7 7 8 8 9 8 8 7 6 6 5 5 5 5 4 4 4 3 3 2 2 2 2 1 1 1 2
5 5 5 4 5 5 6 6 6 7 7 7 7 7 6 5 6 7 7 8 8 8 7 7 7 8 8 6 4 4 4 3 3 3 2 2 2 1 1 1 1 1 2
5 5 4 5 5 5 6 6 6 7 7 7 7 7 6 6 12 13 9 7 6 7 6 6 6 8 10 11 10 8 6 3 2 2 1 1 1 1 1 1 1 1 3
5 5 5 5 5 5 6 6 6 5 6 6 6 6 6 8 13 13 12 7 6 5 5 5 4 6 7 5 7 10 9 9 6 2 1 0 1 1 0 1 1 2 3
5 5 5 5 5 5 5 5 5 4 4 4 5 5 5 7 11 11 11 6 5 4 4 3 3 4 3 4 4 5 5 5 5 2 1 2 3 3 3 3 3 2 3
5 5 5 5 5 5 5 4 3 3 3 3 3 4 4 5 9 9 8 3 4 4 3 3 2 3 6 7 4 3 4 4 6 6 5 4 6 6 3 1 1 1 3
5 5 5 5 5 5 4 3 2 3 3 3 3 3 3 3 6 8 7 2 3 2 3 3 5 4 6 6 2 1 3 3 3 4 5 6 5 5 6 1 1 1 2
5 5 5 5 5 5 4 3 3 3 3 2 2 2 2 2 3 5 5 2 1 1 1 2 3 7 7 6 4 1 4 2 1 2 3 3 3 2 2 2 1 2 3
6 5 5 5 4 4 4 3 3 3 3 2 2 1 1 2 2 3 4 3 2 1 1 2 4 7 6 6 4 4 5 4 1 2 2 2 3 3 3 3 3 3 4
6 5 5 5 4 4 4 4 3 3 3 2 2 1 1 1 2 3 3 3 3 0 2 4 6 6 5 4 5 6 4 2 1 2 2 3 2 3 3 4 4 4 5
7 6 5 5 4 4 3 3 3 3 3 3 3 2 2 1 2 2 1 2 3 2 2 4 6 5 4 4 4 3 2 2 1 2 3 3 3 3 3 3 4 4 4
7 6 5 5 5 4 3 3 4 4 5 5 4 3 3 3 4 4 2 2 2 3 2 0 1 2 2 2 2 2 2 2 2 2 3 4 4 4 4 4 3 4 4
7 6 5 4 4 4 3 2 4 5 6 7 7 6 4 5 6 5 5 6 6 6 2 0 1 2 2 2 2 3 2 3 3 3 4 4 4 5 5 4 4 5 6
8 7 5 5 5 5 4 4 3 3 4 6 7 8 7 6 6 6 6 6 5 4 1 1 2 3 3 3 3 3 3 3 3 3 4 4 5 5 5 5 5 5 6
8 9 8 6 5 5 5 5 4 3 3 3 5 8 8 7 7 7 7 4 3 2 2 3 3 3 3 3 3 3 4 4 4 4 5 5 5 5 5 6 6 7 7
8 6 6 5 5 5 5 5 4 4 4 3 2 4 7 7 7 7 5 2 3 3 3 4 4 4 4 4 4 4 4 4 5 5 5 6 5 5 6 6 7 11 10
7 11 9 6 5 5 5 5 5 5 4 4 4 4 3 3 3 3 3 3 4 4 4 4 4 4 4 4 4 4 4 5 5 5 6 6 5 6 7 8 8 8 8
6 8 12 7 6 6 6 6 6 5 5 5 5 6 8 5 5 5 4 4 5 5 5 5 4 4 4 4 4 5 6 5 5 5 6 6 6 6 7 7 8 9 9
6 6 6 7 6 6 6 6 6 6 6 6 5 5 10 5 4 5 5 5 5 5 5 4 4 4 5 5 5 5 6 6 6 6 6 6 6 7 7 8 9 9 9
6 7 6 6 6 9 8 6 6 6 6 6 6 5 5 5 5 5 6 5 5 5 4 4 5 5 5 5 5 5 6 7 7 6 7 7 7 8 8 9 11 11 11
7 7 7 7 6 7 7 7 7 7 7 6 6 6 6 6 6 6 6 5 5 5 5 5 5 7 9 6 5 5 6 8 7 7 10 10 10 9 9 10 11 13 12
6 7 7 7 7 7 7 7 7 7 7 7 6 6 6 6 6 6 5 5 5 6 6 6 5 6 8 10 8 7 12 17 16 11 9 10 11 12 12 13 12 13 13
6 7 7 6 6 7 7 7 7 7 7 7 6 6 6 6 6 6 5 5 5 5 6 6 7 8 9 8 10 13 16 18 19 19 13 10 11 11 11 11 14 13 14
Wind_Direction
55 53 51 42 42 46 46 39 37 36 34 36 36 40 40 37 35 45 48 46 54 51 47 54 52 45 45 36 35 34 24 25 159 75 58 58 79 118 111 111 113 145 251
72 66 59 50 49 50 47 40 41 44 41 41 43 47 47 44 44 50 54 53 58 56 51 55 52 52 50 41 41 40 32 23 62 95 62 54 58 103 97 117 143 178 224
83 76 66 56 54 52 49 47 48 50 48 48 50 52 50 49 50 53 60 61 61 58 55 56 51 56 55 47 48 45 35 33 40 76 68 53 52 66 79 73 73 27 270
92 84 77 67 63 62 60 57 55 55 55 53 54 55 57 56 55 57 62 63 63 58 54 52 49 54 59 55 52 46 45 45 47 60 61 49 44 51 67 55 6 349 297
103 94 89 81 76 73 69 63 59 59 58 54 56 53 54 64 66 67 65 66 65 60 51 44 46 55 60 62 65 54 50 48 45 50 49 40 28 30 27 15 339 328 301
113 107 102 93 87 81 76 71 67 63 58 56 54 53 52 60 72 75 77 66 63 62 55 42 42 43 44 45 52 53 51 57 53 52 39 33 349 336 346 3 14 8 316
120 118 114 108 100 89 85 79 72 67 65 61 55 53 52 61 70 74 75 72 64 58 53 44 40 35 37 33 36 35 29 33 44 97 111 270 274 263 242 292 258 237 252
131 128 123 117 110 101 94 89 81 74 72 69 60 53 50 58 69 74 77 68 62 55 52 52 46 12 10 51 41 27 16 9 9 37 198 237 240 239 222 222 234 258 265
143 141 135 131 126 120 114 109 103 96 86 77 69 61 52 45 65 75 79 64 55 39 28 32 37 3 4 32 48 24 4 346 356 0 352 336 325 319 301 220 276 311 304
153 147 141 138 137 135 133 127 117 114 109 98 81 63 52 26 60 74 83 76 58 32 14 4 3 2 1 11 59 18 333 312 327 342 349 352 354 349 359 34 175 191 257
147 141 139 140 143 142 137 136 133 124 115 106 93 51 26 21 37 55 74 100 85 53 18 346 325 338 348 348 1 290 291 325 1 338 330 332 339 346 351 354 188 184 213
145 144 146 149 150 142 140 141 139 135 129 128 121 81 352 351 5 20 35 52 103 113 316 290 294 322 340 347 345 317 336 10 6 332 330 327 327 322 317 312 291 259 236
149 153 154 149 144 145 150 151 145 146 152 163 169 194 260 308 331 358 11 5 11 52 276 310 327 341 356 352 339 348 10 12 332 322 314 303 294 291 300 304 296 279 267
160 163 161 156 154 153 156 161 162 169 174 181 192 205 224 254 272 280 295 315 326 321 308 322 343 355 5 352 353 359 353 314 300 285 290 291 296 302 304 305 302 307 297
168 171 170 170 165 166 171 183 184 199 191 189 199 198 200 230 247 253 246 244 253 260 274 313 346 344 344 336 330 325 326 334 336 312 301 304 306 307 305 304 295 297 287
175 179 177 173 172 172 172 189 218 209 216 214 206 203 221 235 252 266 281 289 297 301 313 279 291 293 293 298 306 310 309 308 306 301 297 295 296 297 297 295 287 286 287
182 181 178 178 178 180 181 181 196 237 239 233 229 228 233 244 253 267 276 283 293 313 302 261 264 268 272 276 275 276 283 290 290 286 287 288 289 288 288 290 290 286 284
184 186 184 185 184 186 190 192 192 197 218 252 250 245 243 245 253 266 272 275 280 282 242 250 257 261 262 264 266 270 278 284 281 280 280 280 279 281 282 281 281 280 283
186 186 186 183 186 189 190 192 198 206 214 224 238 258 248 248 256 264 270 236 239 252 251 251 252 254 256 256 259 264 268 273 276 277 276 274 273 274 275 274 276 282 285
193 195 186 185 188 191 193 198 203 209 217 221 227 230 230 228 237 250 244 235 240 246 248 249 251 249 249 250 253 257 263 266 270 272 272 272 270 268 271 275 276 278 278
190 195 194 191 196 197 199 204 207 209 217 225 230 230 225 217 226 234 238 238 239 243 246 248 249 249 247 246 247 252 257 262 262 264 268 269 269 270 270 273 275 275 276
188 191 192 197 200 203 205 206 207 213 221 229 234 239 244 234 227 234 238 242 239 237 238 240 245 243 239 238 242 249 255 259 260 260 263 265 265 268 270 271 273 275 276
190 194 198 202 203 213 214 209 211 216 222 226 230 230 232 231 232 235 240 243 242 244 241 238 244 250 246 238 234 236 247 255 257 257 263 268 268 267 268 269 270 272 273
196 200 204 206 206 210 213 214 215 220 223 226 228 230 230 232 236 239 240 242 243 246 244 241 244 250 255 256 248 242 245 255 257 255 253 257 262 265 265 266 267 268 270
201 205 208 209 210 213 217 218 219 221 224 226 227 230 231 231 235 240 240 240 244 249 252 250 248 251 256 258 259 258 265 271 270 264 255 255 258 259 262 265 267 270 270
206 211 213 211 213 214 216 219 220 220 224 228 229 229 229 232 236 238 239 240 243 249 253 253 251 253 258 263 265 269 275 278 278 278 275 268 266 266 266 268 269 270 272